TimeEST,TemperatureF,Dew PointF,Humidity,Sea Level PressureIn,VisibilityMPH,Wind Direction,Wind SpeedMPH,Gust SpeedMPH,PrecipitationIn,Events,Conditions,WindDirDegrees,DateUTC
12:55 AM,17.1,2.1,52,30.07,10.0,WNW,8.1,-,N/A,,Partly Cloudy,290,2013-02-02 05:55:00
1:55 AM,17.1,3.7,56,30.10,10.0,West,9.2,-,N/A,,Partly Cloudy,270,2013-02-02 06:55:00
2:55 AM,16.9,4.3,58,30.12,10.0,West,6.9,-,N/A,,Partly Cloudy,280,2013-02-02 07:55:00
3:55 AM,16.3,3.6,57,30.13,10.0,West,4.6,-,N/A,,Partly Cloudy,280,2013-02-02 08:55:00
4:55 AM,16.5,2.5,54,30.15,10.0,WNW,8.1,-,N/A,,Partly Cloudy,290,2013-02-02 09:55:00
5:55 AM,14.9,4.1,62,30.17,10.0,WNW,9.2,-,N/A,,Partly Cloudy,290,2013-02-02 10:55:00
6:55 AM,14.2,2.8,61,30.19,10.0,WNW,8.1,-,N/A,,Partly Cloudy,290,2013-02-02 11:55:00
7:55 AM,16.9,3.7,56,30.21,10.0,West,4.6,-,N/A,,Partly Cloudy,270,2013-02-02 12:55:00
8:55 AM,19.2,4.6,53,30.22,10.0,West,5.8,-,N/A,,Scattered Clouds,270,2013-02-02 13:55:00
9:55 AM,20.8,3.2,47,30.22,10.0,West,11.5,-,N/A,,Mostly Cloudy,260,2013-02-02 14:55:00
10:55 AM,23.4,1.2,38,30.20,10.0,SW,6.9,-,N/A,,Mostly Cloudy,230,2013-02-02 15:55:00
11:55 AM,26.2,-0.2,32,30.17,10.0,Variable,4.6,-,N/A,,Mostly Cloudy,0,2013-02-02 16:55:00
12:55 PM,26.8,-0.2,31,30.14,10.0,SSW,9.2,-,N/A,,Mostly Cloudy,200,2013-02-02 17:55:00
1:55 PM,27.9,-0.2,30,30.12,10.0,SSW,4.6,-,N/A,,Mostly Cloudy,210,2013-02-02 18:55:00
2:55 PM,27.7,0.9,32,30.10,10.0,South,9.2,-,N/A,,Overcast,170,2013-02-02 19:55:00
3:55 PM,27.1,1.8,34,30.08,10.0,SSW,5.8,-,N/A,,Overcast,200,2013-02-02 20:55:00
4:55 PM,26.6,2.5,36,30.07,10.0,South,4.6,-,N/A,,Overcast,180,2013-02-02 21:55:00
5:55 PM,25.5,4.3,40,30.07,10.0,SSE,4.6,-,N/A,,Overcast,150,2013-02-02 22:55:00
6:55 PM,25.5,6.1,44,30.06,10.0,SE,3.5,-,N/A,,Overcast,140,2013-02-02 23:55:00
7:55 PM,25.9,6.6,44,30.06,10.0,South,4.6,-,N/A,,Overcast,170,2013-02-03 00:55:00
8:55 PM,26.4,6.1,42,30.05,10.0,South,3.5,-,N/A,,Overcast,180,2013-02-03 01:55:00
9:55 PM,26.6,5.4,40,30.05,10.0,South,3.5,-,N/A,,Overcast,180,2013-02-03 02:55:00
10:55 PM,26.6,7.2,44,30.04,10.0,WSW,6.9,-,N/A,,Overcast,240,2013-02-03 03:55:00
11:55 PM,26.1,9.0,49,30.04,10.0,SW,8.1,-,N/A,,Overcast,230,2013-02-03 04:55:00